FALCON 9 DEB (45106 NORAD) Tracking and Keplerian Element Data

This shows tracking and keplerian element data for the satellite.

Feedback or suggestion? Click here.




ElementValue
Catalog45106
NameFALCON 9 DEB
Epoch Orbit892
Epoch Day85.05976891
Epoch Year2020
RAAN307.1803
Inclination52.9831
Eccentricity0.0006006
Argument of Perigee254.6185
Mean Anonmoly105.4202
Mean Motion16.50711492
Decay Rate0.1287369
L11 45106U 20006BQ 20085.05976891 .12873690 12637-4 12653-3 0 9993
L22 45106 52.9831 307.1803 0006006 254.6185 105.4202 16.50711492 8920

Live tracking and technical data element details for FALCON 9 DEB (NORAD 45106). FALCON 9 DEB can be tracked NOW for your location showing map with azimuth and elevation plus other details from your city location.

Track the satellite on the map from your city or location and see movement details for azimuth, elevation, latitude, longitude, range, height, and movement on the map or in text.







IsCatalogInMostPopularTable: catalog: 45106, numindb: 10
Update: records affected: 1



GetName: 45106 FALCON 9 DEB

Hit Count: updated at: Sat, 28 Mar 2020 21:33:20 GMT